Weather History for Santa Ana, CA

Change the Weather History Date:

Thursday, March 14, 2013

  Actual Average Record
Temperature  
Mean Temperature 61 °F 59 °F  
Max Temperature 70 °F 67 °F 76 °F (2005)
Min Temperature 52 °F 52 °F 43 °F (2006)
Degree Days  
Heating Degree Days 4 6  
Month to date heating degree days 81 89  
Since 1 July heating degree days 947 995  
Cooling Degree Days 0 0  
Month to date cooling degree days 4 0  
Year to date cooling degree days 4 8  
Growing Degree Days 10 (Base 50)    
Moisture  
Dew Point 52 °F    
Average Humidity 78    
Maximum Humidity 100    
Minimum Humidity 55    
Precipitation  
Precipitation 0.00 in 0.04 in 0.75 in (1996)
Month to date precipitation 0.05 1.38  
Year to date precipitation 1.66 7.24  
Since 1 July precipitation 4.68 11.61  
Snow  
Snow 0.00 in - - ()
Month to date snowfall 0.0  
Year to date snowfall 0.0  
Since 1 July snowfall 0.0  
Snow Depth 0.00 in    
Sea Level Pressure  
Sea Level Pressure 30.06 in    
Wind  
Wind Speed 3 mph (SW)    
Max Wind Speed 12 mph    
Max Gust Speed 15 mph    
Visibility 4 miles    
Events      
T = Trace of Precipitation, MM = Missing Value Source: NWS Daily Summary

Daily Weather History Graph

Daily Weather History Graph

Search for Another Location

Airport:

Trip Planner

Search our weather history database for the weather conditions in past years. The results will help you decide how hot, cold, wet, or windy it might be!

Date:

Astronomy

Mar. 14, 2013 Rise Set
Actual Time 7:02 AM PDT 6:58 PM PDT
Civil Twilight 6:37 AM PDT 7:23 PM PDT
Nautical Twilight 6:09 AM PDT 7:52 PM PDT
Astronomical Twilight 5:40 AM PDT 8:21 PM PDT
Moon 8:29 AM PDT (3/14) 10:07 PM PDT (3/14)
Length of Visible Light 12h 45m
Length of Day
11h 56m
Waxing Crescent, 9% of the Moon is Illuminated
Mar 14
Waxing Crescent
Mar 19
First Quarter
Mar 27
Full
Apr 2
Last Quarter
Apr 10
New

Hourly Weather History & Observations

Time (PDT) Temp. Dew Point Humidity Pressure Visibility Wind Dir Wind Speed Gust Speed Precip Events Conditions
12:28 AM 53.6 °F 51.8 °F 94% 30.09 in 3.0 mi SSE 3.5 mph - N/A   Overcast
12:53 AM 52.0 °F 51.1 °F 97% 30.09 in 2.0 mi SSE 5.8 mph - N/A   Overcast
1:08 AM 51.8 °F 51.8 °F 100% 30.09 in 1.0 mi Calm Calm - N/A   Overcast
1:18 AM 51.8 °F 51.8 °F 100% 30.09 in 0.8 mi SSE 3.5 mph - N/A   Overcast
1:29 AM 51.8 °F 51.8 °F 100% 30.09 in 1.0 mi Calm Calm - N/A   Overcast
1:53 AM 53.1 °F 51.1 °F 93% 30.10 in 1.0 mi WSW 3.5 mph - N/A   Overcast
2:03 AM 51.8 °F 51.8 °F 100% 30.09 in 0.8 mi Calm Calm - N/A   Overcast
2:15 AM 53.6 °F 51.8 °F 94% 30.09 in 1.2 mi Calm Calm - N/A   Overcast
2:53 AM 53.1 °F 51.1 °F 93% 30.09 in 1.2 mi Calm Calm - N/A   Overcast
3:50 AM 51.8 °F 51.8 °F 100% 30.07 in 2.5 mi Calm Calm - N/A   Overcast
3:53 AM 52.0 °F 51.1 °F 97% 30.07 in 2.5 mi Calm Calm - N/A   Overcast
4:12 AM 51.8 °F 51.8 °F 100% 30.06 in 3.0 mi Calm Calm - N/A   Overcast
4:49 AM 53.6 °F 51.8 °F 94% 30.06 in 2.5 mi Calm Calm - N/A   Overcast
4:53 AM 53.1 °F 51.1 °F 93% 30.06 in 3.0 mi Calm Calm - N/A   Overcast
5:04 AM 53.6 °F 51.8 °F 94% 30.06 in 2.5 mi Calm Calm - N/A   Overcast
5:53 AM 52.0 °F 50.0 °F 93% 30.07 in 2.0 mi Calm Calm - N/A   Overcast
6:17 AM 51.8 °F 50.0 °F 94% 30.07 in 1.0 mi Calm Calm - N/A   Overcast
6:22 AM 51.8 °F 50.0 °F 94% 30.07 in 1.0 mi Calm Calm - N/A   Overcast
6:30 AM 51.8 °F 50.0 °F 94% 30.07 in 1.0 mi Calm Calm - N/A   Overcast
6:53 AM 52.0 °F 50.0 °F 93% 30.07 in 1.0 mi Calm Calm - N/A   Overcast
7:53 AM 53.1 °F 50.0 °F 89% 30.08 in 1.2 mi Calm Calm - N/A   Overcast
8:44 AM 55.4 °F 50.0 °F 82% 30.08 in 2.0 mi Calm Calm - N/A   Haze
8:51 AM 55.4 °F 51.8 °F 88% 30.08 in 2.0 mi Calm Calm - N/A   Scattered Clouds
8:53 AM 55.9 °F 51.1 °F 84% 30.08 in 2.0 mi Calm Calm - N/A   Haze
9:13 AM 57.2 °F 51.8 °F 82% 30.08 in 3.0 mi Calm Calm - N/A   Haze
9:53 AM 60.1 °F 51.1 °F 72% 30.09 in 3.0 mi Calm Calm - N/A   Haze
10:53 AM 64.9 °F 51.1 °F 61% 30.08 in 3.0 mi Calm Calm - N/A   Haze
11:53 AM 66.0 °F 53.1 °F 63% 30.07 in 5.0 mi SW 4.6 mph - N/A   Haze
12:53 PM 68.0 °F 53.1 °F 59% 30.05 in 4.0 mi Variable 4.6 mph - N/A   Haze
1:53 PM 64.9 °F 52.0 °F 63% 30.04 in 10.0 mi WSW 5.8 mph - N/A   Scattered Clouds
2:53 PM 68.0 °F 53.1 °F 59% 30.03 in 10.0 mi WSW 5.8 mph - N/A   Partly Cloudy
3:53 PM 68.0 °F 52.0 °F 56% 30.02 in 10.0 mi SW 8.1 mph - N/A   Scattered Clouds
4:53 PM 70.0 °F 53.1 °F 55% 30.01 in 10.0 mi SW 4.6 mph - N/A   Scattered Clouds
5:53 PM 68.0 °F 52.0 °F 56% 30.01 in 10.0 mi SSW 4.6 mph - N/A   Scattered Clouds
6:53 PM 62.1 °F 52.0 °F 70% 30.01 in 10.0 mi WSW 4.6 mph - N/A   Partly Cloudy
7:53 PM 59.0 °F 52.0 °F 78% 30.01 in 10.0 mi South 4.6 mph - N/A   Partly Cloudy
8:53 PM 59.0 °F 51.1 °F 75% 30.03 in 10.0 mi WSW 4.6 mph - N/A   Partly Cloudy
9:53 PM 57.0 °F 52.0 °F 83% 30.04 in 10.0 mi SSW 5.8 mph - N/A   Scattered Clouds
10:48 PM 55.4 °F 51.8 °F 88% 30.05 in 6.0 mi WSW 5.8 mph - N/A   Partly Cloudy
10:53 PM 55.9 °F 52.0 °F 87% 30.05 in 6.0 mi SW 8.1 mph - N/A   Partly Cloudy
11:31 PM 55.4 °F 51.8 °F 88% 30.05 in 6.0 mi South 9.2 mph - N/A   Mostly Cloudy
11:53 PM 54.0 °F 52.0 °F 93% 30.05 in 6.0 mi SW 8.1 mph - N/A   Mostly Cloudy